Location: Titusville
(28.6120°N, 80.8080°W)
Time: 09:01:13
(UTC-05:00)

Tiangong 2 - Visible Passes

Search period start: 17 December 2017 00:00
Search period end: 27 December 2017 00:00
Orbit: 386 x 390 km, 42.8° (Epoch: 17 December)

Date Brightness Start Highest point End Pass type
(mag) Time Alt. Az. Time Alt. Az. Time Alt. Az.
17 Dec 3.2 18:36:44 10° S 18:38:37 15° SE 18:38:50 15° SE visible
18 Dec 2.2 19:13:35 10° SW 19:15:47 41° SW 19:15:47 41° SW visible
19 Dec 2.1 18:15:28 10° SSW 18:18:23 34° SE 18:20:22 17° E visible
19 Dec 4.7 19:52:36 10° W 19:52:40 10° W 19:52:40 10° W visible
20 Dec 1.8 18:53:38 10° WSW 18:56:40 42° NNW 18:57:10 38° N visible
21 Dec 1.1 17:55:01 10° SW 17:58:11 87° SE 18:01:22 10° NE visible
21 Dec 4.2 19:33:28 10° WNW 19:33:54 12° NW 19:33:54 12° NW visible
22 Dec 3.0 18:34:04 10° W 18:36:38 22° NNW 18:38:16 15° NNE visible
24 Dec 3.6 18:14:56 10° NW 18:16:40 14° NNW 18:18:25 10° NNE visible
